Location: Unspecified
(0.0000°N, 0.0000°E)
Time: 09:49:34
(UTC+00:00)

HO-68 - Visible Passes

Search period start: 25 June 2018 00:00
Search period end: 05 July 2018 00:00
Orbit: 1192 x 1205 km, 100.1° (Epoch: 24 June)

Date Brightness Start Highest point End Pass type
(mag) Time Alt. Az. Time Alt. Az. Time Alt. Az.
25 Jun ? 19:48:27 10° SW 19:52:14 15° WSW 19:56:00 10° WNW visible
26 Jun ? 19:30:06 10° SSW 19:35:23 22° WSW 19:40:42 10° WNW visible
27 Jun ? 05:33:13 10° NE 05:39:29 33° ESE 05:45:45 10° SSE visible
27 Jun ? 19:12:20 10° SSW 19:18:33 32° WSW 19:24:45 10° NW visible
28 Jun ? 05:17:15 10° NE 05:22:38 23° ESE 05:28:00 10° SSE visible
28 Jun ? 18:54:55 10° S 19:01:42 46° WSW 19:08:27 10° NNW visible
29 Jun ? 05:01:52 10° ENE 05:05:47 16° ESE 05:09:43 10° SE visible
29 Jun ? 18:37:43 10° S 18:44:49 65° WSW 18:51:53 10° NNW visible
30 Jun ? 18:20:45 10° SSE 18:27:57 90° NNE 18:35:07 10° NNW visible
01 Jul ? 19:55:41 10° SW 19:58:24 12° WSW 20:01:07 10° W visible
02 Jul ? 19:36:49 10° SSW 19:41:34 19° WSW 19:46:20 10° WNW visible
03 Jul ? 19:18:51 10° SSW 19:24:44 28° WSW 19:30:36 10° NW visible
04 Jul ? 05:23:00 10° NE 05:28:48 27° ESE 05:34:37 10° SSE visible
04 Jul ? 19:01:18 10° S 19:07:52 40° WSW 19:14:25 10° NW visible
